Torna al catalogo

COSMOS 1977

AttivoMilitareHEO
NORAD 19608·PAYLOAD·🇷🇺 Russia

Lanciato Oct 25, 1988 da Plesetsk Cosmodrome

Loading…

Prossimi Passaggi (prossime 24 ore)

TLE

AggiornatoSource: Space-Track

Epoca: Sep 7, 2026, 09:47 UTC

1 19608U 88096A   26250.40775740  .00000507  00000-0  00000-0 0  9996
2 19608  69.1191 110.7258 5572374  49.0789  72.4294  2.00575992277448

Traccia COSMOS 1977 in tempo reale con AllMySat

Download on the App Store